CW6018 Weather Reports


time (UTC)temp
C
wind
direction
speed
KPH
gust
KPH
rain 1hr
cm
rain 24hr
cm
rain mn
cm
humidity
%
barometer
mb
20260502195419 10 0.0 1.6 0.00 0.00 0.00 82 1008.8
20260502194419 10 315 1.6 3.2 0.00 0.00 0.00 82 1008.9
20260502193439 10 0 4.8 6.4 0.00 0.00 0.00 81 1009.0
20260502192418 10 0 11.3 16.1 0.00 0.00 0.00 81 1009.1
20260502191419 10 0 12.9 16.1 0.00 0.00 0.00 81 1009.3
20260502190419 11 0 17.7 20.9 0.00 0.00 0.00 81 1009.2
20260502185439 11 0 17.7 22.5 0.00 0.00 0.00 81 1009.3
20260502184418 11 0 22.5 29.0 0.00 0.00 0.00 79 1009.4
20260502183419 11 0 14.5 19.3 0.00 0.00 0.00 77 1009.1
20260502182418 12 0 19.3 25.7 0.00 0.00 0.00 76 1009.2
20260502181419 12 203 17.7 24.1 0.00 0.00 0.00 74 1008.7
20260502180418 12 203 14.5 20.9 0.00 0.00 0.00 72 1008.5
20260502170420 13 203 16.1 20.9 0.00 0.00 0.00 67 1009.0
20260502163420 13 180 17.7 24.1 0.00 0.00 0.00 65 1009.1
20260502162419 14 180 17.7 27.4 0.00 0.00 0.00 64 1009.3
20260502161419 15 158 16.1 22.5 0.00 0.00 0.00 63 1009.3
20260502160439 14 180 14.5 19.3 0.00 0.00 0.00 65 1009.4
20260502151419 15 158 22.5 25.7 0.00 0.00 0.00 72 1009.8
20260502150420 15 158 16.1 22.5 0.00 0.00 0.00 73 1009.9
20260502130418 14 158 14.5 20.9 0.00 0.00 0.00 71 1011.3
20260502123418 13 158 16.1 22.5 0.00 0.00 0.00 73 1011.7
20260502122418 13 180 17.7 27.4 0.00 0.00 0.00 73 1011.8
20260502121418 13 180 12.9 16.1 0.00 0.00 0.00 74 1012.0
20260502120419 13 180 19.3 25.7 0.00 0.00 0.00 73 1012.2
20260502115418 13 180 17.7 24.1 0.00 0.00 0.00 74 1012.3
20260502114459 13 158 17.7 24.1 0.00 0.00 0.00 75 1012.2
20260502113418 13 158 17.7 24.1 0.00 0.00 0.00 75 1012.4
20260502112458 13 203 16.1 24.1 0.00 0.00 0.00 75 1012.5
20260502111418 13 180 19.3 22.5 0.00 0.00 0.00 76 1012.6
20260502110440 13 158 17.7 25.7 0.00 0.00 0.00 75 1012.7
20260502105420 13 180 17.7 24.1 0.00 0.00 0.00 76 1012.7
20260502104420 13 180 16.1 22.5 0.00 0.00 0.00 75 1012.7
20260502103420 13 180 14.5 20.9 0.00 0.00 0.00 74 1012.7
20260502101420 13 203 17.7 22.5 0.00 0.00 0.00 74 1012.9
20260502100420 13 203 16.1 20.9 0.00 0.00 0.00 73 1012.9
20260502091419 13 203 20.9 25.7 0.00 0.00 0.00 74 1013.2
20260502090419 13 180 14.5 19.3 0.00 0.00 0.00 75 1013.2
20260502071419 12 158 19.3 25.7 0.00 0.00 0.00 79 1013.6
20260502070419 12 158 22.5 27.4 0.00 0.00 0.00 79 1013.7
20260502065418 12 158 22.5 29.0 0.00 0.00 0.00 79 1013.7
20260502064418 12 158 16.1 24.1 0.00 0.00 0.00 79 1013.8
20260502063438 11 0 17.7 25.7 0.00 0.00 0.00 80 1013.9
20260502062418 11 0 19.3 24.1 0.00 0.00 0.00 80 1014.0
20260502061438 11 135 19.3 25.7 0.00 0.00 0.00 79 1014.0
20260502060418 11 0 16.1 22.5 0.00 0.00 0.00 78 1014.1
20260502055419 11 0 14.5 20.9 0.00 0.00 0.00 78 1014.1
20260502054439 11 0 17.7 24.1 0.00 0.00 0.00 78 1014.2
20260502053438 11 158 19.3 25.7 0.00 0.00 0.00 78 1014.2
20260502052418 11 135 14.5 20.9 0.00 0.00 0.00 78 1014.3
20260502051418 11 158 17.7 22.5 0.00 0.00 0.00 79 1014.4
20260502050419 10 135 12.9 19.3 0.00 0.00 0.00 80 1014.5
20260502045500 10 135 9.7 16.1 0.00 0.00 0.00 81 1014.6
20260502044438 10 135 12.9 16.1 0.00 0.00 0.00 81 1014.7
20260502043440 10 135 12.9 17.7 0.00 0.00 0.00 82 1014.8
20260502042420 10 135 14.5 17.7 0.00 0.00 0.00 82 1014.9
20260502041419 10 135 17.7 22.5 0.00 0.00 0.00 82 1015.1
20260502040420 10 158 17.7 19.3 0.00 0.00 0.00 81 1015.3
20260502035420 10 135 19.3 24.1 0.00 0.00 0.00 81 1015.4
20260502034420 9 158 19.3 22.5 0.00 0.00 0.00 81 1015.5
20260502033419 9 135 17.7 20.9 0.00 0.00 0.00 81 1015.6
20260502032419 9 158 14.5 17.7 0.00 0.00 0.00 80 1015.8
20260502031419 9 158 14.5 17.7 0.00 0.00 0.00 80 1016.0
20260502030420 9 158 17.7 19.3 0.00 0.00 0.00 78 1016.1
20260502025419 10 158 16.1 17.7 0.00 0.00 0.00 75 1016.3
20260502024419 10 180 14.5 17.7 0.00 0.00 0.00 72 1016.4
20260502023439 10 158 12.9 17.7 0.00 0.00 0.00 72 1016.7
20260502022419 10 180 16.1 22.5 0.00 0.00 0.00 69 1016.8
20260502021419 11 180 17.7 24.1 0.00 0.00 0.00 65 1017.0
20260502020419 11 203 16.1 22.5 0.00 0.00 0.00 66 1017.0
20260502015419 11 203 19.3 25.7 0.00 0.00 0.00 65 1017.1
20260502014419 10 180 16.1 22.5 0.00 0.00 0.00 71 1017.2
20260502013419 10 180 19.3 27.4 0.00 0.00 0.00 73 1017.4
20260502012419 10 180 17.7 20.9 0.00 0.00 0.00 77 1017.6
20260502011418 9 180 14.5 20.9 0.00 0.00 0.00 78 1017.7
20260502010418 10 180 16.1 20.9 0.00 0.00 0.00 78 1017.7
20260502005419 10 180 11.3 17.7 0.00 0.00 0.00 77 1017.8
20260502004418 10 180 16.1 25.7 0.00 0.00 0.00 76 1017.8
20260502003418 10 180 14.5 20.9 0.00 0.00 0.00 75 1018.0
20260502002418 10 180 12.9 17.7 0.00 0.00 0.00 73 1018.1
20260502001418 11 180 17.7 24.1 0.00 0.00 0.00 70 1018.1
20260502000418 11 180 16.1 22.5 0.00 0.00 0.00 70 1018.2
20260501235418 10 180 17.7 20.9 0.00 0.00 0.00 71 1018.3
20260501234418 11 203 16.1 19.3 0.00 0.00 0.00 68 1018.4
20260501233418 11 203 19.3 27.4 0.00 0.00 0.00 68 1018.6
20260501232418 11 203 17.7 22.5 0.00 0.00 0.00 70 1018.7
20260501231420 11 203 19.3 25.7 0.00 0.00 0.00 71 1018.8
20260501230500 11 203 16.1 19.3 0.00 0.00 0.00 71 1018.9
20260501225420 11 203 17.7 24.1 0.00 0.00 0.00 71 1019.0
20260501224440 11 203 20.9 27.4 0.00 0.00 0.00 72 1019.1
20260501223419 11 203 19.3 25.7 0.00 0.00 0.00 72 1019.2
20260501222420 11 203 20.9 24.1 0.00 0.00 0.00 70 1019.4
20260501221440 11 203 22.5 27.4 0.00 0.00 0.00 68 1019.3
20260501220420 11 203 22.5 27.4 0.00 0.00 0.00 67 1019.3
20260501215418 11 203 20.9 25.7 0.00 0.00 0.00 68 1019.4
20260501214418 11 203 22.5 29.0 0.00 0.00 0.00 67 1019.5
20260501213418 11 180 20.9 29.0 0.00 0.00 0.00 69 1019.5
20260501212419 11 180 16.1 22.5 0.00 0.00 0.00 69 1019.6
20260501211420 11 203 22.5 30.6 0.00 0.00 0.00 69 1019.7
20260501210419 11 180 22.5 29.0 0.00 0.00 0.00 67 1019.8
20260501205419 11 180 22.5 33.8 0.00 0.00 0.00 69 1019.8
20260501204419 11 180 20.9 27.4 0.00 0.00 0.00 71 1019.9
20260501203418 11 180 20.9 27.4 0.00 0.00 0.00 71 1020.0
20260501202419 11 203 19.3 24.1 0.00 0.00 0.00 70 1020.1
20260501201419 11 180 17.7 27.4 0.00 0.00 0.00 71 1020.1
20260501200419 12 180 19.3 24.1 0.00 0.00 0.00 68 1020.3